Location: *
(47.8307°S, 178.3954°E)
Time: 08:40:18
(UTC+00:00)

BREEZE-M DEB (TANK) - Pass Details

Date: 12 August 2024
Orbit: 305 x 13932 km, 49.6° (Epoch: 18 September)

Event Time Altitude Azimuth Distance (km) Brightness Sun altitude
Exits shadow 17:14:37 41° 249° (WSW) 1,060 3.6 -20.3°
Maximum altitude 17:16:10 77° 171° (S) 949 3.7 -20.0°
Drops below altitude 10° 17:28:20 10° 84° (E) 5,773 9.1 -18.0°
Sets 17:36:47 0° 81° (E) 8,865 10.5 -16.6°
